Wind_Speed
18 17 16 15 15 14 13 12 11 12 12 12 14 15 16 15 15 14 12 11 11 9 9 7 5 5 6 7 10 13 15 16 16 17 17 16 16 15 14 12 11 10 10 9
20 18 18 17 15 14 13 12 12 12 12 12 13 14 14 14 15 14 12 11 11 10 8 7 7 6 7 7 9 11 14 15 15 17 17 16 16 16 13 12 11 11 11 10
21 19 19 17 15 13 13 13 12 12 11 12 12 12 14 14 14 13 12 12 11 10 8 7 7 6 6 6 8 11 13 15 15 16 16 16 16 15 14 12 11 12 11 11
20 20 19 17 15 14 14 14 13 11 10 10 11 10 13 13 13 13 13 11 10 9 8 7 6 5 5 5 6 10 12 13 15 15 15 15 15 15 15 13 13 13 12 12
19 19 18 17 16 15 16 15 13 12 11 10 11 10 11 12 13 13 12 10 9 9 8 6 6 5 5 5 6 9 11 13 14 14 14 14 15 15 15 14 14 13 13 13
18 18 18 17 17 17 16 14 13 11 11 11 11 11 9 11 11 11 10 9 10 9 7 6 5 5 5 5 6 8 11 13 14 15 15 14 15 16 15 14 14 13 13 13
17 17 17 17 17 17 16 14 12 11 11 11 12 11 9 10 10 10 9 9 10 9 7 6 5 5 5 6 6 7 11 14 14 15 15 14 15 16 16 15 14 14 14 14
15 16 17 17 17 17 17 15 14 12 11 11 13 11 10 10 11 10 9 9 9 9 8 6 5 5 5 5 6 7 10 13 14 15 16 15 16 17 16 16 15 15 15 15
15 17 16 17 18 18 18 16 15 14 13 11 11 12 11 10 10 10 10 9 9 9 7 6 6 6 6 5 5 7 8 10 13 14 15 16 16 16 17 16 16 16 16 16
17 17 17 17 18 18 18 17 16 14 13 11 11 11 11 11 10 10 10 10 10 9 8 6 6 6 6 5 5 5 6 8 11 14 15 16 16 16 17 17 17 18 17 17
20 19 19 19 19 18 19 18 17 16 14 12 11 11 12 11 11 10 10 10 10 9 8 7 6 6 6 5 5 5 6 8 10 13 15 16 16 16 16 16 17 18 18 19
24 22 21 21 20 20 20 19 19 18 17 15 13 12 13 12 11 11 11 11 11 10 9 7 7 7 7 6 6 6 7 8 10 12 14 16 17 17 17 17 18 19 19 20
27 26 23 21 22 23 23 22 21 21 20 19 16 13 15 13 13 12 12 12 11 11 10 8 8 8 8 8 7 7 7 8 9 11 14 16 17 17 18 18 19 20 20 21
29 28 25 22 21 23 24 24 24 23 22 20 18 16 17 16 15 14 14 13 13 12 11 10 9 8 8 8 8 7 7 8 9 10 11 13 15 16 18 18 19 20 21 22
32 31 30 28 28 27 25 25 25 25 23 21 19 18 18 18 18 17 16 15 14 13 12 11 10 10 10 10 9 9 9 9 9 10 11 12 13 14 16 17 18 20 21 22
35 34 32 31 30 30 28 26 26 26 25 24 23 21 21 20 19 18 17 16 15 15 15 14 13 12 12 12 11 11 11 11 11 11 12 13 14 14 15 16 18 19 21 22
34 34 34 33 33 34 33 29 28 28 26 26 25 24 24 23 22 21 20 18 17 17 17 16 15 14 13 13 13 13 12 12 12 12 13 14 15 16 16 17 18 19 21 22
32 33 33 33 34 36 31 29 29 29 28 28 28 26 26 25 24 23 22 21 20 20 19 18 17 16 16 15 15 15 15 14 14 14 15 15 15 16 17 18 19 20 22 23
31 32 33 33 33 34 32 31 29 29 29 29 29 27 27 26 25 23 23 23 22 21 20 20 19 19 18 17 17 18 18 16 15 16 16 17 17 17 18 19 21 22 23 24
29 30 32 33 33 33 32 31 29 30 31 29 29 28 27 27 27 25 24 24 23 22 22 21 21 21 20 20 19 19 19 19 18 18 18 19 19 20 21 22 22 23 24 25
27 29 30 31 32 32 31 29 29 30 30 29 29 29 28 28 28 26 26 26 24 24 23 23 22 22 22 21 21 21 20 20 21 21 21 21 22 23 24 24 24 25 26 27
26 27 28 29 31 31 29 28 30 30 29 29 29 29 29 29 28 28 28 27 27 26 25 25 25 24 24 24 23 23 23 22 22 23 23 23 24 25 26 26 27 27 28 30
24 26 27 28 29 28 27 28 28 29 29 29 29 30 30 29 28 29 29 29 28 28 27 26 26 26 26 26 25 25 25 24 24 24 25 26 26 26 27 27 28 29 30 31
23 24 26 26 27 27 27 26 26 27 27 28 29 29 29 29 28 29 30 30 29 29 28 27 27 27 26 27 27 26 26 26 26 26 26 26 27 27 27 28 29 30 31 33
21 22 23 25 25 25 25 25 24 25 26 27 28 28 29 29 29 30 31 30 29 29 28 27 27 27 27 27 26 26 26 26 26 26 26 27 28 28 28 29 30 32 33 34
19 20 20 21 22 22 21 22 22 23 24 25 26 27 28 28 29 30 30 29 29 29 28 28 28 27 26 26 25 25 25 25 25 26 26 27 28 28 30 31 33 34 35 36
Wind_Direction
277 274 274 272 272 270 271 271 276 286 300 309 312 315 319 323 330 330 329 329 328 325 323 320 309 291 276 250 230 222 215 216 217 214 215 217 213 209 207 208 210 209 209 205
274 271 268 268 270 268 269 267 271 282 295 306 310 315 317 320 328 329 327 328 329 323 320 313 304 293 282 263 238 224 216 215 217 215 215 212 207 204 204 207 209 207 206 204
269 264 263 264 263 263 264 260 264 278 296 306 312 321 318 318 324 327 328 327 329 328 325 316 309 302 292 272 236 220 215 216 216 216 213 208 208 209 209 211 209 207 207 207
262 260 258 256 255 255 255 259 263 275 285 294 308 317 314 317 322 326 329 329 329 330 327 320 313 298 288 269 234 213 212 214 215 213 210 210 212 210 212 212 209 208 209 209
260 256 254 250 249 249 248 256 262 271 278 289 303 311 313 316 322 327 330 334 335 331 329 325 320 311 295 269 241 219 214 213 217 214 215 215 213 212 210 209 208 210 212 215
255 254 251 247 246 247 251 255 262 270 280 284 289 297 309 314 319 325 329 332 336 335 329 326 320 316 300 279 246 226 217 212 213 213 216 217 216 213 211 211 212 215 219 222
254 253 251 247 245 247 247 249 259 270 277 280 282 287 297 305 315 318 323 329 334 339 332 325 320 314 294 277 257 238 225 218 215 214 215 217 217 215 215 216 218 220 223 225
253 252 251 247 242 242 241 240 243 250 260 271 283 287 292 301 310 311 316 324 331 334 331 324 319 321 308 282 258 245 233 221 219 219 219 216 217 216 217 220 222 224 226 228
247 247 250 246 242 239 240 240 242 250 259 266 273 282 287 294 302 303 308 316 324 331 328 322 316 317 312 294 267 250 238 224 221 221 221 217 215 216 219 223 226 228 230 231
243 242 249 249 246 242 239 241 244 248 257 267 279 287 285 288 298 299 300 306 320 325 322 317 316 316 309 298 289 271 252 234 224 222 222 219 219 222 224 229 231 231 233 235
240 239 243 247 246 246 245 245 247 248 250 259 270 277 275 282 292 295 295 301 311 316 313 307 305 314 311 300 292 280 262 247 232 227 225 224 225 227 228 232 234 234 238 240
236 237 238 243 247 245 247 248 249 251 260 266 263 268 272 279 284 289 292 297 304 306 304 302 298 302 307 296 288 278 263 250 239 232 229 228 229 230 233 239 240 240 244 247
235 236 237 244 250 249 247 249 251 254 257 260 263 267 274 274 276 281 288 290 294 296 297 298 295 293 294 291 286 279 265 254 245 244 242 237 235 238 242 244 246 247 248 250
240 239 235 233 239 246 248 248 250 252 256 260 260 258 266 272 273 276 281 282 284 286 286 288 288 287 291 288 280 275 269 265 254 250 248 245 243 245 246 249 251 252 254 255
243 245 243 240 241 247 248 248 250 251 251 254 256 258 260 266 271 272 275 276 276 276 277 280 280 279 283 284 277 270 269 269 267 263 257 255 253 252 251 253 254 255 256 257
244 246 248 249 250 251 250 249 251 253 253 253 253 254 257 261 264 266 266 268 271 269 269 272 275 275 276 275 272 270 268 268 270 270 267 264 258 256 255 257 260 261 261 264
244 247 248 250 252 254 253 252 253 253 251 251 252 252 253 254 258 260 260 261 265 265 268 268 270 273 271 270 269 267 267 267 270 271 271 268 263 261 261 263 264 265 266 268
244 247 249 250 251 253 255 254 253 252 252 252 252 250 249 249 253 255 255 257 259 262 263 263 265 267 267 267 266 265 265 267 268 270 271 268 268 268 267 268 269 270 271 272
244 246 249 251 253 256 255 254 254 254 252 250 251 249 247 246 248 251 252 254 255 259 260 260 262 265 265 264 266 265 264 267 271 272 271 268 267 270 272 273 275 274 273 274
246 247 250 251 252 254 255 254 253 253 251 248 248 247 246 245 245 248 249 250 252 256 257 257 261 263 262 263 264 264 263 265 269 272 271 271 269 272 275 275 276 276 275 276
247 249 250 252 253 254 253 253 250 250 249 245 244 243 242 241 242 243 244 246 249 251 253 255 258 259 260 260 262 261 263 265 267 269 270 271 271 272 274 274 275 276 276 278
249 250 250 251 252 254 254 252 249 248 247 243 241 240 239 239 240 239 240 242 246 248 250 252 254 255 256 257 259 260 261 263 266 267 269 271 272 272 273 274 275 276 277 279
250 250 251 251 252 254 253 250 247 245 243 240 238 238 237 236 235 236 239 241 243 245 247 249 252 253 256 258 259 259 261 263 266 269 271 273 274 273 272 274 276 278 279 280
251 252 252 252 252 252 250 248 246 243 240 237 236 236 234 233 234 234 237 239 241 244 246 248 251 254 256 257 259 260 262 264 266 269 272 273 274 275 276 277 279 280 281 283
252 253 253 253 251 250 248 245 243 239 234 232 231 231 230 230 233 235 237 239 240 243 246 247 250 254 258 257 256 258 261 263 267 270 273 275 277 277 278 280 283 284 284 285
251 253 254 251 247 244 242 241 238 234 230 228 227 227 227 229 231 232 234 235 238 243 243 245 249 253 256 256 257 259 263 266 269 273 275 277 278 280 282 284 285 286 288 288
Height
5872 5873 5873 5874 5874 5875 5875 5876 5876 5875 5874 5873 5872 5870 5867 5864 5861 5858 5855 5852 5850 5848 5846 5845 5844 5843 5842 5842 5843 5845 5846 5849 5851 5854 5857 5859 5861 5864 5867 5869 5871 5872 5874 5875
5869 5869 5869 5869 5870 5871 5872 5873 5873 5873 5871 5871 5869 5868 5865 5862 5860 5857 5854 5851 5849 5847 5845 5844 5843 5842 5842 5841 5841 5842 5844 5847 5850 5852 5855 5857 5860 5862 5865 5867 5869 5871 5873 5874
5863 5865 5864 5865 5866 5867 5868 5870 5870 5870 5869 5868 5868 5866 5863 5860 5858 5855 5853 5850 5848 5846 5844 5843 5842 5841 5840 5839 5839 5841 5843 5845 5848 5850 5853 5855 5858 5861 5863 5865 5867 5870 5871 5873
5858 5859 5859 5860 5862 5863 5865 5866 5866 5867 5867 5868 5866 5865 5862 5859 5856 5853 5851 5849 5847 5845 5843 5842 5841 5840 5839 5838 5838 5839 5842 5844 5846 5848 5851 5853 5856 5859 5861 5863 5866 5868 5870 5872
5854 5854 5855 5856 5858 5859 5861 5862 5863 5863 5864 5864 5864 5862 5862 5857 5854 5852 5850 5847 5846 5844 5842 5841 5840 5839 5838 5837 5837 5838 5840 5842 5844 5846 5849 5851 5854 5857 5859 5862 5864 5866 5868 5870
5849 5849 5851 5852 5854 5855 5857 5859 5860 5860 5861 5863 5861 5860 5859 5856 5852 5850 5848 5847 5845 5843 5841 5840 5839 5837 5837 5836 5836 5837 5838 5840 5842 5845 5847 5849 5852 5855 5858 5860 5862 5864 5866 5868
5844 5845 5846 5848 5849 5851 5854 5856 5859 5860 5861 5861 5858 5857 5856 5853 5851 5849 5847 5846 5844 5842 5840 5839 5838 5836 5835 5835 5835 5835 5836 5838 5840 5842 5845 5847 5850 5853 5855 5858 5860 5862 5864 5866
5841 5842 5843 5844 5846 5848 5850 5853 5856 5858 5859 5859 5855 5854 5854 5850 5849 5847 5846 5844 5842 5841 5839 5838 5837 5836 5835 5834 5834 5834 5835 5836 5838 5840 5842 5845 5848 5850 5853 5855 5858 5860 5862 5864
5837 5839 5839 5840 5842 5844 5846 5848 5852 5853 5853 5854 5854 5852 5850 5848 5846 5845 5844 5842 5841 5840 5838 5837 5836 5835 5834 5833 5833 5833 5833 5834 5836 5838 5840 5843 5845 5848 5851 5853 5855 5857 5859 5861
5833 5835 5836 5836 5838 5840 5842 5844 5846 5848 5850 5851 5851 5850 5848 5845 5844 5843 5842 5841 5839 5838 5837 5836 5835 5834 5833 5832 5832 5832 5832 5833 5834 5836 5838 5840 5843 5845 5847 5849 5852 5854 5856 5857
5829 5831 5833 5833 5834 5837 5838 5840 5841 5844 5846 5847 5849 5850 5845 5843 5842 5840 5839 5838 5838 5837 5836 5835 5834 5833 5833 5832 5831 5831 5831 5831 5832 5833 5836 5838 5840 5842 5844 5846 5848 5850 5852 5853
5823 5826 5828 5830 5831 5832 5834 5836 5838 5840 5841 5841 5843 5847 5841 5840 5839 5838 5837 5836 5835 5835 5834 5833 5832 5832 5831 5831 5830 5830 5830 5830 5830 5831 5833 5836 5838 5840 5841 5843 5845 5846 5848 5849
5816 5820 5824 5826 5828 5828 5828 5830 5832 5834 5836 5837 5839 5843 5837 5836 5835 5834 5834 5833 5833 5832 5832 5831 5831 5830 5830 5829 5829 5828 5828 5828 5829 5830 5831 5833 5835 5836 5838 5839 5841 5842 5843 5844
5809 5812 5817 5822 5822 5821 5822 5825 5826 5828 5830 5832 5833 5835 5834 5832 5831 5831 5830 5830 5829 5829 5829 5829 5829 5828 5828 5827 5827 5827 5827 5827 5827 5828 5828 5830 5831 5832 5834 5835 5836 5837 5838 5839
5800 5804 5807 5810 5812 5814 5816 5818 5819 5821 5823 5826 5828 5828 5829 5827 5827 5827 5826 5826 5826 5826 5826 5826 5826 5826 5825 5825 5825 5825 5825 5825 5825 5825 5826 5827 5827 5828 5829 5830 5831 5832 5833 5834
5791 5795 5798 5801 5804 5805 5807 5810 5812 5814 5816 5818 5820 5822 5822 5822 5822 5822 5822 5822 5822 5822 5822 5822 5822 5822 5822 5822 5822 5822 5823 5823 5823 5823 5823 5823 5823 5824 5825 5826 5827 5827 5828 5828
5783 5787 5790 5793 5794 5795 5798 5803 5805 5806 5808 5810 5812 5815 5815 5815 5816 5816 5817 5817 5817 5817 5817 5818 5818 5819 5819 5819 5819 5819 5819 5820 5820 5820 5819 5819 5819 5820 5821 5822 5822 5822 5823 5823
5775 5778 5780 5783 5785 5785 5793 5794 5795 5797 5800 5802 5803 5805 5807 5808 5809 5810 5811 5812 5812 5813 5813 5813 5814 5814 5814 5815 5815 5815 5816 5816 5816 5816 5816 5815 5815 5816 5816 5817 5817 5817 5817 5817
5767 5769 5771 5774 5775 5777 5782 5784 5786 5788 5790 5793 5794 5796 5798 5800 5802 5803 5805 5806 5806 5807 5808 5808 5809 5809 5810 5810 5810 5811 5811 5812 5812 5812 5811 5811 5811 5811 5811 5812 5811 5811 5811 5810
5759 5761 5763 5764 5766 5769 5773 5774 5776 5779 5780 5784 5785 5787 5790 5792 5794 5797 5798 5799 5800 5801 5802 5803 5803 5804 5804 5805 5805 5806 5806 5807 5807 5807 5806 5806 5806 5806 5806 5806 5805 5805 5804 5803
5751 5752 5754 5755 5756 5759 5762 5765 5767 5770 5772 5774 5775 5778 5781 5783 5786 5789 5790 5792 5793 5795 5796 5797 5798 5798 5799 5799 5800 5801 5801 5801 5802 5801 5801 5801 5801 5800 5800 5799 5799 5798 5797 5795
5742 5744 5745 5746 5748 5752 5752 5755 5757 5759 5761 5764 5766 5769 5771 5774 5777 5780 5782 5785 5787 5788 5790 5791 5792 5792 5793 5794 5794 5795 5795 5796 5796 5795 5795 5795 5794 5794 5793 5792 5791 5790 5789 5787
5734 5736 5736 5738 5741 5742 5743 5744 5746 5749 5751 5754 5757 5760 5763 5766 5769 5772 5775 5777 5779 5781 5783 5784 5785 5786 5787 5788 5788 5789 5789 5789 5789 5789 5789 5788 5787 5786 5785 5784 5783 5782 5780 5779
5727 5727 5728 5729 5731 5732 5734 5735 5737 5740 5742 5746 5749 5751 5754 5758 5761 5764 5767 5769 5772 5774 5775 5777 5778 5779 5780 5781 5781 5782 5783 5783 5782 5782 5782 5781 5780 5779 5778 5777 5775 5774 5772 5770
5720 5720 5720 5721 5723 5724 5726 5727 5730 5732 5735 5738 5741 5743 5747 5750 5754 5757 5759 5762 5764 5766 5768 5769 5771 5772 5773 5774 5774 5775 5775 5775 5775 5775 5774 5773 5772 5771 5769 5768 5766 5764 5762 5760
5714 5714 5714 5714 5715 5717 5718 5720 5722 5725 5727 5730 5733 5736 5740 5743 5747 5749 5752 5755 5757 5759 5761 5762 5764 5765 5765 5766 5767 5767 5768 5768 5768 5767 5766 5765 5764 5762 5761 5759 5757 5754 5752 5749